CAPE
0 0 0 0 0 0 1 10 20 29 50 64 50 67 565 368 277 279 236 14 22 20 0 0 0 0 0 0 0 0 0 0 0 0 0 0 0 0 0 0 0 0 1 2
0 0 0 0 0 0 0 0 0 60 149 102 0 0 62 539 400 234 245 82 92 47 0 10 0 0 0 0 1 0 0 0 0 0 0 0 0 0 0 0 0 0 7 8
0 0 0 0 0 0 0 9 2 0 96 83 2 0 0 493 583 366 235 139 78 9 0 9 0 0 0 0 0 0 0 0 0 0 0 0 0 0 0 0 0 1 5 7
0 0 0 0 0 0 0 0 0 0 0 0 7 2 24 150 653 497 300 302 194 45 3 18 1 0 0 0 0 0 0 0 0 0 0 0 1 0 0 0 0 0 5 1
0 0 0 0 0 0 0 0 0 0 0 0 0 1 84 77 681 593 394 306 168 38 0 47 26 0 0 0 0 0 0 0 0 0 0 0 0 2 1 5 2 0 0 0
0 0 0 0 0 0 0 0 0 0 0 0 26 8 0 263 717 728 543 310 48 20 14 4 0 0 0 0 0 0 0 0 2 7 0 2 4 4 0 5 7 1 7 5
0 0 0 0 0 0 0 0 0 0 0 0 4 0 0 31 704 768 681 245 57 3 0 0 0 0 0 0 0 0 0 0 1 7 0 1 0 2 2 0 0 2 7 5
0 0 0 0 0 0 0 0 0 1 9 56 22 0 0 274 317 587 774 184 33 24 0 0 0 2 1 0 0 0 0 0 4 0 1 3 0 0 8 7 12 9 8 4
0 0 0 0 0 0 0 0 0 11 28 9 45 50 286 359 221 504 572 358 159 0 0 0 2 0 0 0 0 0 0 0 2 0 2 0 0 0 2 7 17 12 19 14
0 0 0 0 0 0 0 3 6 20 32 1 8 11 0 1 524 288 572 465 162 0 2 0 0 0 0 0 0 0 0 0 0 0 0 1 0 0 7 13 6 3 13 20
0 0 0 0 0 0 0 0 20 60 1 8 14 71 4 312 632 295 712 377 45 6 0 0 0 0 0 0 0 0 0 0 0 0 1 0 3 0 7 16 13 17 6 17
0 0 0 6 0 0 0 0 2 12 38 5 6 12 83 186 599 520 385 61 8 3 0 0 0 0 0 0 0 0 0 0 0 0 2 0 5 4 10 17 18 11 12 10
0 0 0 11 2 0 0 0 0 38 1 0 59 125 15 62 358 402 71 4 3 2 0 1 0 0 0 0 0 0 0 0 0 0 0 8 6 10 11 10 1 20 18 16
0 0 0 3 22 24 0 0 0 1 14 43 62 0 55 63 142 113 39 5 0 1 0 0 0 0 0 0 0 0 0 0 0 0 2 3 9 11 11 9 10 11 10 13
0 0 0 0 0 43 6 0 0 0 7 37 36 20 88 105 68 41 81 0 0 0 0 0 0 0 0 0 0 0 0 0 0 0 6 8 15 12 6 19 8 8 11 9
0 0 0 0 28 59 10 17 2 15 14 17 9 6 9 35 32 34 72 4 1 0 0 0 0 0 0 0 0 0 0 1 0 2 5 9 9 7 4 14 16 25 16 9
0 0 4 0 42 28 15 20 14 14 25 12 32 33 30 2 0 28 37 3 1 0 0 0 0 0 0 0 0 0 0 0 0 4 8 7 6 6 5 8 31 21 15 19
0 0 12 143 69 24 55 69 53 35 9 5 5 4 0 0 0 0 3 0 1 1 0 0 0 0 0 0 0 0 0 0 1 3 6 5 7 4 9 17 17 31 16 9
49 105 31 224 54 3 0 0 14 27 0 1 0 3 0 0 0 0 0 0 0 0 0 0 0 0 0 0 0 0 0 0 1 2 6 4 5 8 18 25 23 21 18 5
131 249 221 72 43 1 7 0 26 2 0 9 1 10 0 0 0 0 0 0 0 0 0 0 0 0 0 0 0 0 0 1 0 3 3 5 9 7 8 25 24 21 19 12
83 233 143 69 19 1 0 4 0 0 34 71 82 17 0 0 8 0 0 0 0 0 0 0 0 0 0 0 0 0 2 3 2 0 1 5 14 12 10 15 14 19 13 1
102 134 56 84 19 71 12 0 0 271 311 121 96 16 2 0 0 0 0 0 0 0 0 0 0 0 0 0 3 4 3 3 3 1 1 6 9 10 6 6 9 29 7 1
23 43 138 187 59 1 38 561 613 327 140 51 43 7 4 0 0 0 0 0 0 0 0 0 0 0 0 1 3 3 1 0 2 2 3 12 8 14 12 27 15 5 12 9
30 341 125 2 0 0 77 499 165 62 48 8 21 0 0 0 0 0 0 0 0 0 0 0 0 0 1 2 3 1 1 0 3 2 6 14 14 9 16 15 16 16 12 14
103 137 210 498 247 293 276 201 68 20 0 0 0 0 0 0 0 0 0 0 0 0 0 0 0 0 0 0 2 3 1 1 3 3 6 10 9 3 11 18 10 15 29 5
0 246 303 386 330 349 309 168 43 0 0 0 0 0 0 0 0 0 0 0 0 0 0 0 3 1 0 5 3 3 7 0 1 9 7 11 4 12 9 12 21 12 1 0
CIN
0 0 0 0 0 0 -12 -13 -21 -119 -272 -246 -16 -4 -23 -100 -108 -56 -27 -62 -74 -106 -9 -24 0 0 -2 0 0 0 0 0 0 0 0 0 0 0 -1 0 0 0 -4 -5
0 0 0 0 0 0 0 -3 -1 -5 -15 -21 0 0 -4 -57 -127 -98 -45 -58 -78 -114 0 -180 0 0 -1 -1 -2 0 0 0 0 0 0 0 0 -4 0 0 0 -2 -3 -3
0 0 0 0 0 0 0 -67 -1 0 -11 -23 -10 0 0 -24 -92 -99 -45 -22 -86 -144 0 -181 0 0 0 0 0 0 0 0 0 0 0 0 -1 0 0 -2 0 -3 -1 -2
0 0 0 0 0 0 0 0 0 0 0 0 -11 -3 -1 -14 -73 -100 -59 -30 -115 -134 -141 -152 -44 0 0 0 0 0 0 0 0 0 -1 0 -1 0 0 0 0 0 -4 -12
0 0 0 0 0 0 0 0 0 0 0 0 0 -6 -4 -60 -21 -88 -80 -19 -74 -149 -16 -111 -132 0 0 0 0 0 0 0 0 -1 0 0 0 -1 -2 -3 -3 -1 -6 -1
0 0 0 0 0 0 0 0 0 0 0 0 -21 -43 0 -6 -27 -67 -79 -67 -171 -192 -150 -102 0 0 0 0 0 0 0 0 -1 0 -2 -2 -2 -3 0 -3 -5 -8 -6 -10
0 0 0 0 0 0 0 0 0 0 0 -5 -55 0 0 -24 -5 -17 -35 -139 -192 -128 0 0 0 0 0 -1 0 0 0 0 -1 -3 -1 -1 -1 -2 -2 0 0 -5 -3 -2
0 0 0 0 0 0 0 0 0 -27 -37 -6 -69 0 0 -6 -27 -6 -16 -177 -238 -228 0 0 0 -4 -1 0 0 0 0 0 -1 0 -2 -1 0 0 -2 -2 -2 -2 -4 -12
0 0 0 0 0 0 0 0 -2 -10 -2 -6 -13 -55 -40 -25 -3 -24 -40 -104 -116 0 0 0 0 0 0 0 0 0 0 0 -1 0 -2 0 0 0 -3 -3 -3 -3 -4 -2
0 0 0 0 0 0 0 -33 -11 -29 -15 -7 -47 -30 0 -9 -14 -20 -27 -42 -39 0 -34 -2 0 0 0 0 0 0 0 0 0 0 0 -1 0 0 -3 -2 -2 -8 -3 -3
0 0 0 0 0 0 0 -30 -31 -6 -1 -17 -6 -32 -63 -78 -9 -12 -4 -41 -84 -6 0 0 0 0 0 0 0 0 0 0 -4 0 -1 0 0 0 -2 -7 -5 -5 -8 -5
0 0 0 -4 0 0 0 0 -53 -10 -3 -81 -10 -36 -79 -49 -5 -4 -21 -88 -2 -7 0 0 0 0 0 0 0 0 0 0 0 0 -1 0 -1 -1 -4 -2 -2 -6 -5 -5
0 0 0 -24 -5 0 0 0 0 -29 -57 0 -5 -27 -48 -29 -26 -8 -33 -3 -7 -11 0 -1 0 0 0 0 0 0 0 0 -1 0 0 -4 -2 -5 -3 -3 -11 -6 -7 -7
0 0 0 -1 -14 -7 0 0 0 -2 -4 -3 -15 0 -44 -53 -68 -22 -11 -5 0 -4 0 0 0 0 0 0 0 0 0 -1 -3 -4 -2 -5 -1 -9 -10 -7 -10 -5 -13 -3
0 0 0 0 0 -15 -46 0 0 0 -12 -4 -10 -11 -5 -40 -37 -33 -10 -1 0 0 0 0 0 0 0 0 0 0 0 -1 -2 0 -3 -3 -6 -7 -10 -12 -14 -8 -4 -11
0 0 0 0 -4 -30 -37 -51 -36 -7 -11 -5 -8 -18 -58 -92 -68 -66 -51 -51 -1 0 0 0 0 0 0 0 0 0 0 -2 0 -5 -5 -6 -9 -8 -15 -13 -1 -3 -9 -24
0 0 -12 0 -23 -9 -7 -7 -5 -9 -11 -21 -10 -39 -121 -98 0 -76 -69 -56 -2 0 0 0 0 0 0 0 0 0 0 0 0 -2 -9 -5 -10 -10 -17 -10 -3 -6 -18 -15
0 0 -14 -8 -18 -36 -13 -18 -22 -13 -13 -7 -7 -27 0 0 0 0 -29 0 -2 -4 0 0 0 0 0 0 0 0 0 0 -5 -4 -4 -5 -7 -15 -15 -4 -3 -9 -14 -19
-4 -8 -13 -5 -40 -2 0 0 -39 -41 0 -8 0 -40 0 0 0 0 0 0 0 0 0 0 0 0 0 0 0 0 0 0 -1 -7 -4 -6 -4 -10 -4 -5 -6 -9 -7 -12
-7 -9 -4 -3 -5 -1 -3 0 -57 -18 0 -3 -7 -27 0 0 0 0 0 0 0 0 0 0 0 0 0 0 0 0 0 -1 0 -2 -9 -6 -4 -10 -12 -4 -8 -11 -5 -6
-3 -2 -18 -4 -8 -3 0 -81 0 0 -9 -9 -10 -42 0 0 -54 0 0 0 0 0 0 0 0 0 0 0 0 -1 -1 -1 -1 0 -7 -5 -7 -12 -8 -12 -7 -16 -10 -29
-8 -17 -3 -7 -13 -11 -41 0 0 -28 -28 -19 -33 -62 -102 -59 0 0 0 0 0 0 0 0 0 0 0 0 -2 -2 -4 -3 -1 -2 -8 -6 -3 -11 -19 -20 -9 -10 -6 -9
-4 -7 -26 -63 -145 -22 -149 -88 -79 -71 -42 -58 -68 -100 -196 0 0 0 0 0 0 0 0 0 0 0 0 -1 -5 -7 -7 0 -2 -9 -9 -4 -13 -16 -11 -12 -7 -21 -5 -9
-70 -23 -60 -12 0 0 -102 -86 -115 -94 -104 -118 -133 -33 0 0 0 0 0 0 0 0 0 0 0 -2 -2 -5 -1 -14 -9 0 -3 -8 -3 -7 -10 -19 -21 -16 -16 -11 -19 -4
-42 -15 -39 -16 -29 -30 -35 -93 -142 -144 -7 0 0 0 0 0 0 0 0 0 0 0 0 0 -2 -1 0 0 -5 -9 -4 -1 -4 -2 -6 -10 -8 -17 -19 -19 -11 -6 -5 -7
0 -80 -2 -2 -16 -23 -45 -103 -149 0 0 0 0 0 0 0 0 0 0 0 0 0 0 0 -4 -19 0 -2 -18 -17 -4 -2 -1 -5 -4 -3 -5 -7 -8 -7 -9 -19 -19 -17
Wind_Speed
13 12 19 13 34 32 27 21 4 6 17 24 10 8 7 9 8 9 9 8 9 9 9 11 13 14 17 19 22 25 26 28 27 28 27 25 25 26 28 29 29 32 33 32
14 30 35 36 30 33 34 33 29 13 9 11 16 4 3 8 7 9 9 8 9 8 8 10 10 13 16 18 21 24 26 28 28 27 26 22 22 25 27 28 30 32 33 31
27 16 37 37 33 33 34 34 30 32 10 10 12 2 5 9 8 9 9 7 9 9 7 7 8 10 13 17 20 23 25 26 28 28 25 25 24 26 28 28 29 28 31 30
39 37 11 36 38 34 25 33 23 35 35 24 17 11 8 12 7 8 8 9 9 8 7 7 7 9 12 15 18 21 24 25 26 28 27 27 26 27 28 26 25 26 26 27
28 40 37 37 36 37 34 32 31 32 34 25 14 10 28 5 7 8 7 10 8 8 6 6 8 9 11 13 16 20 22 23 24 25 26 27 26 26 25 25 24 24 25 22
35 26 36 28 30 30 33 33 25 31 31 26 29 20 28 16 11 9 8 8 9 9 7 7 9 10 11 11 14 18 20 22 23 23 26 25 25 24 25 25 25 25 24 25
29 35 19 25 23 27 35 28 26 13 20 15 19 33 16 28 4 7 9 10 11 10 9 8 8 8 10 13 15 17 19 20 20 23 24 25 24 24 24 25 26 24 25 25
23 18 37 8 11 11 4 6 23 11 7 22 4 11 12 15 12 10 10 12 11 11 10 10 9 10 10 13 15 15 17 19 20 22 23 24 25 24 24 26 25 24 25 24
26 26 33 10 11 21 4 28 21 28 36 34 16 25 23 22 16 10 11 12 10 12 11 10 10 11 12 13 14 15 17 18 20 21 22 22 23 24 24 25 25 25 25 25
38 34 35 7 12 21 16 2 31 16 25 33 33 26 35 7 9 8 10 10 10 12 10 12 11 12 12 13 14 14 15 17 19 21 21 22 23 23 25 25 26 27 26 26
36 35 31 8 6 7 9 7 3 22 14 14 31 23 16 23 9 8 8 8 8 11 11 11 11 11 11 11 13 13 14 16 18 20 21 21 23 23 24 24 25 25 25 25
17 24 31 21 6 6 27 18 6 24 29 25 35 29 26 21 12 8 8 8 9 10 10 10 10 11 12 12 13 14 15 16 19 20 20 21 21 22 23 24 25 26 25 24
13 25 26 28 9 13 9 16 27 12 19 39 33 18 19 16 11 7 6 8 9 9 9 10 10 10 12 12 12 13 13 16 18 20 20 20 22 22 22 24 25 24 25 25
13 16 18 25 3 23 10 14 16 20 12 21 22 25 27 10 10 8 6 9 8 8 8 9 9 10 11 12 11 12 14 15 17 18 18 19 21 20 21 23 23 23 22 23
13 21 12 33 31 27 28 7 10 9 15 20 24 25 6 7 10 8 7 6 7 8 7 8 9 10 11 11 11 12 13 14 17 18 17 18 18 18 20 21 22 21 23 26
10 14 31 32 25 24 9 14 10 11 15 20 21 22 12 11 9 8 5 5 6 6 6 7 8 9 9 10 10 11 12 13 15 16 15 16 17 17 19 19 19 22 25 25
13 12 17 16 28 13 17 16 15 13 17 19 22 14 13 14 10 7 5 5 5 5 6 7 7 8 10 11 11 11 12 13 14 15 14 14 15 17 18 19 21 22 23 24
15 12 19 20 15 18 23 18 15 16 17 19 17 12 13 13 12 8 5 4 5 5 6 7 8 9 11 11 12 11 11 12 12 14 14 14 15 17 17 17 23 22 21 22
8 12 16 19 15 16 27 24 21 17 26 23 22 9 10 12 12 11 6 5 5 6 7 8 9 10 11 12 11 11 11 11 12 13 13 14 15 16 15 18 21 21 19 20
12 18 18 20 18 15 16 11 19 22 27 24 19 6 7 10 14 7 6 7 7 8 8 9 10 11 11 12 12 11 10 11 11 14 14 14 16 16 16 18 19 20 22 21
6 6 9 12 16 23 16 16 18 22 23 19 11 6 6 11 18 12 9 8 8 8 9 10 10 10 11 12 12 11 11 11 12 13 15 15 15 17 17 17 17 19 22 22
8 7 7 7 7 24 16 13 13 13 16 12 12 8 8 10 11 11 10 9 8 8 9 9 10 11 12 12 12 14 15 16 13 15 15 15 15 15 15 16 18 19 19 23
28 10 10 14 13 21 24 15 14 14 13 12 9 8 7 9 9 9 9 9 8 8 9 9 10 11 12 12 13 13 14 13 13 15 15 15 15 15 14 15 17 21 22 22
26 1 8 9 10 7 25 12 13 13 12 11 9 8 8 8 8 8 8 8 8 8 9 9 10 10 12 12 13 14 14 14 14 15 15 15 15 15 15 16 18 19 20 21
36 10 7 10 5 7 5 9 11 12 12 11 10 9 9 8 7 8 8 8 8 9 9 9 9 9 10 11 11 14 15 15 14 15 15 14 14 14 15 15 14 19 18 20
15 11 13 9 6 10 7 9 11 11 12 11 10 10 10 9 8 8 8 8 8 9 10 10 12 11 10 12 12 13 13 15 15 14 14 15 13 13 15 14 16 13 15 18
Wind_Direction
237 235 171 167 215 216 252 288 80 165 131 190 15 21 103 105 127 150 135 133 121 96 85 70 49 38 30 23 20 13 11 10 16 16 17 21 21 21 19 18 18 13 9 11
242 186 200 216 204 225 241 251 258 341 28 352 341 1 123 140 141 156 147 143 128 109 103 74 51 40 27 24 20 15 13 13 15 17 21 27 27 27 22 22 20 14 12 16
242 220 232 221 214 218 235 246 275 265 333 353 342 277 206 164 142 147 158 138 128 125 112 76 51 40 35 24 19 16 14 17 17 15 22 24 27 24 21 22 20 22 19 19
236 233 206 209 224 218 210 241 287 264 262 247 342 226 242 162 148 148 159 138 133 123 103 72 57 42 33 28 24 18 17 18 19 17 22 25 26 24 22 26 26 27 26 27
249 232 236 214 216 243 226 263 235 241 246 234 228 235 318 134 158 153 154 162 144 129 116 85 62 51 40 39 32 23 22 24 23 25 28 27 28 29 28 29 31 31 30 31
244 255 245 259 260 255 252 233 242 274 242 232 293 321 308 192 157 140 130 122 129 131 100 78 66 55 45 49 42 25 27 28 27 29 27 32 32 33 32 30 31 31 31 29
252 249 272 266 274 265 237 256 212 200 204 322 323 312 317 213 97 139 126 106 113 111 96 80 76 69 63 45 39 36 31 32 33 31 30 31 34 35 35 34 31 33 31 30
255 261 231 295 193 187 238 202 201 306 323 236 340 331 344 106 42 107 114 99 98 104 94 91 89 82 66 45 36 36 36 34 33 30 30 33 33 36 34 34 34 34 33 33
258 252 256 242 270 263 216 201 196 224 259 267 335 300 333 341 345 63 90 96 97 105 100 95 93 70 55 46 40 38 36 34 33 35 33 34 32 33 32 33 35 35 36 35
238 252 251 225 267 265 192 300 253 306 228 272 278 312 311 168 82 65 90 86 87 109 98 89 75 61 56 50 43 45 40 35 32 32 31 30 31 31 29 31 33 33 34 34
243 248 253 213 237 216 253 265 235 280 307 284 276 315 339 341 36 40 67 68 98 107 89 83 79 65 60 67 55 47 40 35 29 29 29 29 28 29 29 30 31 32 32 32
247 267 258 273 234 246 262 284 211 252 276 303 287 307 338 350 13 40 46 80 95 98 90 94 80 70 61 58 52 41 36 32 26 25 27 29 29 29 29 32 29 28 33 33
242 257 265 264 284 279 256 283 278 317 319 273 298 336 343 351 4 20 60 99 90 97 94 98 84 68 65 53 54 48 45 33 28 25 26 27 26 29 29 30 30 32 33 34
235 259 261 264 247 292 255 269 279 294 316 307 321 334 323 359 12 25 84 105 97 104 96 96 80 62 56 56 59 52 42 40 32 30 30 29 27 30 31 31 33 34 35 33
235 257 264 259 274 291 285 256 238 265 307 313 316 331 7 22 9 27 84 88 96 105 99 87 73 58 48 51 58 54 48 43 34 31 32 30 32 33 30 30 32 35 32 27
233 261 254 260 271 282 308 292 302 310 314 318 329 335 10 9 22 32 70 91 107 106 97 81 71 62 50 50 53 55 51 48 39 37 37 36 37 36 32 31 32 30 27 28
259 257 273 274 269 285 290 289 291 304 311 319 319 348 356 346 356 19 62 96 110 99 96 75 66 55 47 44 42 43 45 48 45 43 45 44 42 36 32 30 28 28 26 28
249 253 272 276 291 280 301 303 307 316 316 326 332 345 342 350 354 16 63 88 96 87 79 63 58 47 45 43 42 46 49 45 49 43 45 47 41 34 32 34 27 26 29 28
237 250 267 278 288 306 263 305 306 314 301 312 313 340 346 359 10 10 30 67 61 61 60 51 50 47 45 44 48 49 50 51 49 48 45 43 39 33 33 31 26 26 28 27
271 261 265 285 288 297 287 288 327 320 301 309 302 319 336 358 350 15 56 59 57 56 52 49 48 49 46 48 48 51 54 53 49 41 41 40 33 31 30 28 27 26 25 26
240 239 231 277 294 292 308 321 323 314 302 316 337 320 340 344 341 36 56 49 52 48 47 51 50 49 48 44 50 52 51 49 45 40 39 36 34 28 25 26 26 25 23 25
207 223 237 258 289 277 314 344 354 7 324 304 314 341 355 5 24 35 48 49 50 50 53 59 57 52 52 54 57 38 36 33 41 38 32 33 32 30 26 23 23 23 28 25
223 183 274 278 283 284 262 332 353 9 2 340 354 12 35 28 31 38 40 46 48 50 56 62 63 58 54 50 46 41 41 38 40 35 34 30 29 28 29 27 26 23 24 25
245 303 309 304 287 303 208 350 353 17 34 26 33 36 31 23 36 42 37 48 48 45 56 61 65 56 49 41 42 45 43 41 40 39 34 31 31 32 29 29 30 28 27 26
259 279 296 314 86 104 48 14 14 15 20 17 25 26 25 45 48 42 37 40 43 49 56 60 62 62 49 47 48 40 39 39 43 40 36 38 40 41 37 39 39 30 33 29
265 289 284 345 47 346 19 16 20 24 32 26 32 34 42 51 47 41 42 45 51 56 55 49 38 48 45 32 43 41 45 41 42 38 38 38 39 40 34 35 37 41 37 34